This is the latest recevied weather packets stored in our database for station/object W2GRK-15. If no packets are shown the sender has not sent any weather packets the latest 10 day(s).
| Time | Temp. | Humidity | Pressure | Rain* | Wind** | Luminosity | Snow |
|---|---|---|---|---|---|---|---|
| 1777569628 | 13.89° C | 81% | 1007.7 hPa | 0 mm | - | 196 W/m² | - |
| 1777569387 | 13.89° C | 82% | 1007.8 hPa | 0 mm | - | 183 W/m² | - |
| 1777569322 | 13.89° C | 82% | 1007.6 hPa | 0 mm | - | 177 W/m² | - |
| 1777569081 | 13.89° C | 82% | 1007.4 hPa | 0 mm | - | 156 W/m² | - |
| 1777568726 | 13.89° C | 83% | 1007.4 hPa | 0 mm | - | 149 W/m² | - |
| 1777568661 | 13.89° C | 83% | 1007.5 hPa | 0 mm | - | 136 W/m² | - |
| 1777568616 | 13.89° C | 83% | 1007.7 hPa | 0 mm | - | 118 W/m² | - |
| 1777568020 | 13.89° C | 82% | 1007.4 hPa | 0 mm | - | 124 W/m² | - |
| 1777567517 | 13.89° C | 82% | 1007.7 hPa | 0 mm | - | 256 W/m² | - |
| 1777567050 | 15° C | 83% | 1007.5 hPa | 0 mm | - | 359 W/m² | - |
| 1777566985 | 14.44° C | 84% | 1007.7 hPa | 0 mm | - | 378 W/m² | - |
| 1777566615 | 13.33° C | 84% | 1007.6 hPa | 0 mm | - | 837 W/m² | - |
| 1777566503 | 13.33° C | 85% | 1007.9 hPa | 0 mm | - | 614 W/m² | - |
| 1777566410 | 13.33° C | 87% | 1007.8 hPa | 0 mm | - | 406 W/m² | - |
| 1777566326 | 13.33° C | 87% | 1007.7 hPa | 0 mm | - | 434 W/m² | - |
| 1777566197 | 13.33° C | 89% | 1007.8 hPa | 0 mm | - | 423 W/m² | - |
| 1777565730 | 12.22° C | 90% | 1008.3 hPa | 0 mm | - | 141 W/m² | - |
| 1777565601 | 12.22° C | 89% | 1008.2 hPa | 0 mm | - | 146 W/m² | - |
| 1777565424 | 12.22° C | 89% | 1008 hPa | 0 mm | - | 150 W/m² | - |
| 1777565182 | 12.22° C | 89% | 1008.3 hPa | 0 mm | - | 91 W/m² | - |
| 1777564961 | 12.22° C | 89% | 1008.3 hPa | 0 mm | - | 94 W/m² | - |
| 1777564124 | 12.22° C | 90% | 1008.4 hPa | 0 mm | - | 135 W/m² | - |
| 1777563991 | 12.22° C | 90% | 1008.4 hPa | 0 mm | - | 131 W/m² | - |
| 1777563798 | 12.22° C | 90% | 1008.5 hPa | 0 mm | - | 122 W/m² | - |
| 1777563641 | 11.67° C | 90% | 1008.3 hPa | 0 mm | - | 127 W/m² | - |
* Rain latest hour (hover to see other rain measurements)
** Current wind speed in m/s (hover to see current wind gust speed)